STARLINK-1031, 44736

Orbit data source: Space-Track

STARLINK-1031, 44736 is a payload satellite owned by SpaceX/Seattle (US) in LEO that was launched on Mon, 11 Nov 2019 UTC via an FALCON 9 launch vehicle from the Air Force Eastern Test Range (AFETR). Payloads include a variety of satellites, spacecraft, and rockets equipped with specific instruments for various scientific and technological missions. These include communications satellites like Starlink; space stations such as the ISS; scientific satellites like the Hubble; Earth observation satellites from companies like Planet Labs, Umbra, and HawkEye 360; GPS; miniature CubeSats for education and research; and military/defense satellites.

Loading next visibility...
STARLINK-1031 details
Identifier
44736, 2019-074Z
Orbit
LEO
Last TLE update17 hours ago
Origin
Flag of USSpaceX/Seattle (US)
ManufacturerSpaceX/Seattle
MissionOperational Commercial Communications
Bus & MotorSTARLINK, Unknown motor
Mass260 kg wet, ~248 kg dry
Launch date (UTC)
2019-11-11 (5 years ago)
Launch vehicle
FALCON 9
Launch site
Air Force Eastern Test Range (AFETR)
Object type
Payload
Rocket body
Debris
Shape & HBRBox + 1 Pan, 8.86 m
Radar Cross Section13.562 m², Large (>1 m²)

Expand to show TLE details & history

TLE from 17 hours ago
0 STARLINK-1031
1 44736U 19074Z   24348.53677733  .00004272  00000-0  30552-3 0  9990
2 44736  53.0560  71.9205 0001329  98.2174 261.8966 15.06395394280648
Epoch: 2024-12-13T12:52Z
Definitive object data (Epoch: 2024-12-13T12:52:57.561Z)
Latitude0.00001°
Longitude155.97933°
Altitude548.235 km
Speed7.589 km/s
True Right ascension04h 47m 40s
True Declination0° 00' 00"
Sunlit
Object was in full shadow at TLE epoch
Visualization TLE readout
Latitude33.35504°
Longitude-56.60528°
Altitude548.729 km
Speed7.592 km/s
Apparent Right ascension15h 14m 06s
Apparent Declination-1° 32' 08"
Sunlit
Object is in daylight
Visualization observer readout
Local Sidereal Time03:57:38
Azimuth17.211° NNE
Elevation-50.364°
Doppler factor1
Orbital elements
Apogee altitude548.417 km
Perigee altitude546.576 km
Semi-major axis6,925.633 km
Eccentricity0.0001329
Inclination53.056°
RAAN71.9205°
Arg. of periapsis98.2174°
True anomaly261.88152°
Mean anomaly261.8966°
Eccentric anomaly261.88906°
Mean motion3.76577 °/min
BSTAR0.00030552
Orbital period95.6 mins
Loading maneuver chart data...

STARLINK-1031 Visibility forecast

Observer location: undefined°, undefined

Span
Click to sort rows by Start time (UTC) header in descending order
Start Az.
Max El. time (UTC)
Max El. Az.
Max El.
End time (UTC)
End Az.
7 mins2024-12-14 08:09:35.646Z211.808° SW2024-12-14 08:12:35.646Z144.591° SSE40.177°2024-12-14 08:16:35.646Z57.576° ENE
5 mins2024-12-14 09:50:35.646Z293.134° NW2024-12-14 09:52:35.646Z337.366° NNW24.06°2024-12-14 09:55:35.646Z29.633° NE
4 mins2024-12-14 13:12:35.646Z351.878° N2024-12-14 13:13:35.646Z9.159° NNE16.419°2024-12-14 13:16:35.646Z57.669° ENE
6 mins2024-12-14 14:51:35.646Z321.77° NNW2024-12-14 14:54:35.646Z63.072° ENE39.48°2024-12-14 14:57:35.646Z114.453° SE
4 mins2024-12-14 16:31:35.646Z264.89° W2024-12-14 16:33:35.646Z228.337° WSW18.274°2024-12-14 16:35:35.646Z194.361° SSW
|